Tracking 31027 objects as of 19-Jul-2025
HD Live streaming from Space Station
objects crossing your sky now

STARLINK-6040

Track STARLINK-6040 now!
10-day predictions
STARLINK-6040 is classified as:


NORAD ID: 56809
Int'l Code: 2023-078AU
Perigee: 576.5 km
Apogee: 581.9 km
Inclination: 70.0 °
Period: 96.1 minutes
Semi major axis: 6950 km
RCS: Unknown
Launch date: May 31, 2023
Source: United States (US)
Launch site: AIR FORCE WESTERN TEST RANGE (AFWTR)
Your satellite tracking list
LANDSAT 5
Track 1 satellite(s)




NASA's NSSDC Master Catalog

Two Line Element Set (TLE):
1 56809U 23078AU  25199.82723172 -.00000055  00000-0  32302-5 0  9992
2 56809  69.9982 213.9532 0003938 267.2151  92.8558 14.98328477117914
Source of the keplerian elements: AFSPC